| time (UTC) | temp C | wind direction | speed KPH | gust KPH | rain 1hr cm | rain 24hr cm | rain mn cm | humidity % | barometer mb |
| 20260504014814 | 7 | 290 | 8.0 | 0.0 | 0.00 | 0.00 | 0.00 | 71 | 1018.0 |
| 20260504013319 | 7 | 290 | 8.0 | 0.0 | 0.00 | 0.00 | 0.00 | 71 | 1018.0 |
| 20260504011930 | 6 | 290 | 8.0 | 0.0 | 0.00 | 0.00 | 0.00 | 76 | 1018.0 |
| 20260504010314 | 6 | 290 | 8.0 | 0.0 | 0.00 | 0.00 | 0.00 | 76 | 1018.0 |
| 20260504004930 | 7 | 280 | 8.0 | 0.0 | 0.00 | 0.00 | 0.00 | 71 | 1018.0 |
| 20260504003314 | 7 | 280 | 8.0 | 0.0 | 0.00 | 0.00 | 0.00 | 71 | 1018.0 |
| 20260504001814 | 7 | 270 | 8.0 | 0.0 | 0.00 | 0.00 | 0.00 | 71 | 1018.0 |
| 20260504000314 | 7 | 270 | 8.0 | 0.0 | 0.00 | 0.00 | 0.00 | 71 | 1018.0 |
| 20260503234853 | 7 | 310 | 8.0 | 0.0 | 0.00 | 0.00 | 0.00 | 71 | 1018.0 |
| 20260503233314 | 7 | 310 | 8.0 | 0.0 | 0.00 | 0.00 | 0.00 | 71 | 1018.0 |
| 20260503231817 | 7 | 8.0 | 0.0 | 0.00 | 0.00 | 0.00 | 71 | 1018.0 | |
| 20260503230326 | 7 | 8.0 | 0.0 | 0.00 | 0.00 | 0.00 | 71 | 1018.0 | |
| 20260503224814 | 7 | 290 | 12.9 | 0.0 | 0.00 | 0.00 | 0.00 | 71 | 1018.0 |
| 20260503223326 | 7 | 290 | 12.9 | 0.0 | 0.00 | 0.00 | 0.00 | 71 | 1018.0 |
| 20260503221831 | 7 | 280 | 9.7 | 0.0 | 0.00 | 0.00 | 0.00 | 66 | 1018.0 |
| 20260503220356 | 7 | 280 | 9.7 | 0.0 | 0.00 | 0.00 | 0.00 | 66 | 1018.0 |
| 20260503214821 | 7 | 270 | 9.7 | 0.0 | 0.00 | 0.00 | 0.00 | 66 | 1019.0 |
| 20260503213314 | 7 | 270 | 9.7 | 0.0 | 0.00 | 0.00 | 0.00 | 66 | 1019.0 |
| 20260503211814 | 7 | 270 | 11.3 | 0.0 | 0.00 | 0.00 | 0.00 | 66 | 1019.0 |
| 20260503210314 | 7 | 270 | 11.3 | 0.0 | 0.00 | 0.00 | 0.00 | 66 | 1019.0 |
| 20260503204821 | 8 | 280 | 9.7 | 0.0 | 0.00 | 0.00 | 0.00 | 62 | 1019.0 |
| 20260503203430 | 8 | 280 | 9.7 | 0.0 | 0.00 | 0.00 | 0.00 | 62 | 1019.0 |
| 20260503201814 | 7 | 270 | 8.0 | 0.0 | 0.00 | 0.00 | 0.00 | 71 | 1019.0 |
| 20260503200323 | 7 | 270 | 8.0 | 0.0 | 0.00 | 0.00 | 0.00 | 71 | 1019.0 |
| 20260503194839 | 8 | 260 | 8.0 | 0.0 | 0.00 | 0.00 | 0.00 | 71 | 1019.0 |
| 20260503193430 | 8 | 260 | 8.0 | 0.0 | 0.00 | 0.00 | 0.00 | 71 | 1019.0 |
| 20260503191814 | 10 | 0 | 0.0 | 0.0 | 0.00 | 0.00 | 0.00 | 62 | 1019.0 |
| 20260503190314 | 10 | 0 | 0.0 | 0.0 | 0.00 | 0.00 | 0.00 | 62 | 1019.0 |
| 20260503184929 | 12 | 0 | 0.0 | 0.0 | 0.00 | 0.00 | 0.00 | 54 | 1019.0 |
| 20260503183313 | 12 | 0 | 0.0 | 0.0 | 0.00 | 0.00 | 0.00 | 54 | 1019.0 |
| 20260503181814 | 12 | 50 | 3.2 | 0.0 | 0.00 | 0.00 | 0.00 | 51 | 1019.0 |
| 20260503180314 | 12 | 50 | 3.2 | 0.0 | 0.00 | 0.00 | 0.00 | 51 | 1019.0 |
| 20260503174834 | 12 | 100 | 4.8 | 0.0 | 0.00 | 0.00 | 0.00 | 47 | 1019.0 |
| 20260503173339 | 12 | 100 | 4.8 | 0.0 | 0.00 | 0.00 | 0.00 | 47 | 1019.0 |
| 20260503171814 | 13 | 3.2 | 0.0 | 0.00 | 0.00 | 0.00 | 41 | 1019.0 | |
| 20260503170314 | 13 | 3.2 | 0.0 | 0.00 | 0.00 | 0.00 | 41 | 1019.0 | |
| 20260503150314 | 15 | 4.8 | 0.0 | 0.00 | 0.00 | 0.00 | 34 | 1019.0 | |
| 20260503130314 | 13 | 20 | 8.0 | 0.0 | 0.00 | 0.00 | 0.00 | 39 | 1021.0 |
| 20260503110335 | 13 | 60 | 14.5 | 0.0 | 0.00 | 0.00 | 0.00 | 41 | 1022.0 |
| 20260503090335 | 13 | 70 | 16.1 | 0.0 | 0.00 | 0.00 | 0.00 | 39 | 1023.0 |
| 20260503080324 | 12 | 70 | 16.1 | 0.0 | 0.00 | 0.00 | 0.00 | 44 | 1023.0 |
| 20260503070315 | 11 | 10 | 11.3 | 0.0 | 0.00 | 0.00 | 0.00 | 50 | 1023.0 |
| 20260503060314 | 10 | 50 | 11.3 | 0.0 | 0.00 | 0.00 | 0.00 | 58 | 1023.0 |
| 20260503054814 | 8 | 30 | 8.0 | 0.0 | 0.00 | 0.00 | 0.00 | 62 | 1023.0 |
| 20260503053314 | 8 | 30 | 8.0 | 0.0 | 0.00 | 0.00 | 0.00 | 62 | 1023.0 |
| 20260503051814 | 7 | 20 | 4.8 | 0.0 | 0.00 | 0.00 | 0.00 | 71 | 1023.0 |
| 20260503050314 | 7 | 20 | 4.8 | 0.0 | 0.00 | 0.00 | 0.00 | 71 | 1023.0 |
| 20260503044814 | 5 | 3.2 | 0.0 | 0.00 | 0.00 | 0.00 | 81 | 1022.0 | |
| 20260503043315 | 5 | 3.2 | 0.0 | 0.00 | 0.00 | 0.00 | 81 | 1022.0 | |
| 20260503041814 | 3 | 0 | 0.0 | 0.0 | 0.00 | 0.00 | 0.00 | 87 | 1022.0 |
| 20260503040337 | 3 | 0 | 0.0 | 0.0 | 0.00 | 0.00 | 0.00 | 87 | 1022.0 |
| 20260503034816 | 2 | 0 | 0.0 | 0.0 | 0.00 | 0.00 | 0.00 | 81 | 1022.0 |
| 20260503033314 | 2 | 0 | 0.0 | 0.0 | 0.00 | 0.00 | 0.00 | 81 | 1022.0 |
| 20260503031814 | 2 | 1.6 | 0.0 | 0.00 | 0.00 | 0.00 | 87 | 1022.0 | |
| 20260503030314 | 2 | 1.6 | 0.0 | 0.00 | 0.00 | 0.00 | 87 | 1022.0 | |
| 20260503024829 | 3 | 350 | 8.0 | 0.0 | 0.00 | 0.00 | 0.00 | 81 | 1022.0 |
| 20260503023314 | 3 | 350 | 8.0 | 0.0 | 0.00 | 0.00 | 0.00 | 81 | 1022.0 |
| 20260503021814 | 3 | 350 | 8.0 | 0.0 | 0.00 | 0.00 | 0.00 | 87 | 1022.0 |
| 20260503020314 | 3 | 350 | 8.0 | 0.0 | 0.00 | 0.00 | 0.00 | 87 | 1022.0 |